Weather History for KLBL - November, 2012

Change the Weather History Date:

Friday, November 9, 2012

  Actual Average Record
Temperature  
Mean Temperature 60 °F -  
Max Temperature 80 °F 59 °F 81 °F (1980)
Min Temperature 39 °F 33 °F 15 °F (2000)
Degree Days  
Heating Degree Days 6    
Growing Degree Days 10 (Base 50)    
Moisture  
Dew Point 32 °F    
Average Humidity 38    
Maximum Humidity 70    
Minimum Humidity 16    
Precipitation  
Precipitation 0.00 in - - ()
Sea Level Pressure  
Sea Level Pressure 29.74 in    
Wind  
Wind Speed 11 mph (SSW)    
Max Wind Speed 29 mph    
Max Gust Speed 37 mph    
Visibility 10 miles    
Events      
Averages and records for this station are not official NWS values.
T = Trace of Precipitation, MM = Missing Value Source: NWS Daily Summary

Daily Weather History Graph

Daily Weather History Graph

Search for Another Location

Airport or City:

Trip Planner

Search our weather history database for the weather conditions in past years. The results will help you decide how hot, cold, wet, or windy it might be!

Date:

Astronomy

Nov. 09, 2012 Rise Set
Actual Time 7:16 AM CST 5:38 PM CST
Civil Twilight 6:49 AM CST 6:05 PM CST
Nautical Twilight 6:18 AM CST 6:36 PM CST
Astronomical Twilight 5:47 AM CST 7:07 PM CST
Moon 2:24 AM CST (11/9) 2:46 PM CST (11/9)
Length of Visible Light 11h 16m
Length of Day
10h 21m
Waning Crescent, 23% of the Moon is Illuminated
Nov 9
Waning Crescent
Nov 13
New
Nov 20
First Quarter
Nov 28
Full
Dec 6
Last Quarter

Hourly Weather History & Observations

Time (CST) Temp. Windchill Dew Point Humidity Pressure Visibility Wind Dir Wind Speed Gust Speed Precip Events Conditions
12:15 AM 46.4 °F 45.2 °F 33.8 °F 62% 29.82 in 10.0 mi South 3.5 mph - N/A   Clear
12:35 AM 48.2 °F - 33.8 °F 58% 29.82 in 10.0 mi South 3.5 mph - N/A   Clear
12:55 AM 46.4 °F 45.2 °F 33.8 °F 62% 29.82 in 10.0 mi South 3.5 mph - N/A   Clear
1:15 AM 46.4 °F 45.2 °F 33.8 °F 62% 29.81 in 10.0 mi SSE 3.5 mph - N/A   Clear
1:35 AM 46.4 °F 44.3 °F 33.8 °F 62% 29.81 in 10.0 mi SSW 4.6 mph - N/A   Clear
1:55 AM 44.6 °F - 30.2 °F 57% 29.81 in 10.0 mi Calm Calm - N/A   Clear
2:15 AM 41.0 °F - 28.4 °F 61% 29.80 in 10.0 mi Calm Calm - N/A   Clear
2:35 AM 41.0 °F - 28.4 °F 61% 29.79 in 10.0 mi Calm Calm - N/A   Clear
2:55 AM 39.2 °F - 28.4 °F 65% 29.79 in 10.0 mi Calm Calm - N/A   Clear
3:15 AM 39.2 °F 35.9 °F 28.4 °F 65% 29.78 in 10.0 mi South 4.6 mph - N/A   Clear
3:35 AM 39.2 °F 34.2 °F 28.4 °F 65% 29.79 in 10.0 mi SSW 6.9 mph - N/A   Clear
3:55 AM 41.0 °F 37.1 °F 30.2 °F 65% 29.78 in 10.0 mi West 5.8 mph - N/A   Clear
4:15 AM 42.8 °F 38.6 °F 33.8 °F 70% 29.78 in 10.0 mi SW 6.9 mph - N/A   Clear
4:35 AM 42.8 °F 38.6 °F 32.0 °F 66% 29.78 in 10.0 mi SW 6.9 mph - N/A   Clear
4:55 AM 44.6 °F 39.7 °F 32.0 °F 61% 29.78 in 10.0 mi SW 9.2 mph - N/A   Clear
5:15 AM 44.6 °F 40.2 °F 32.0 °F 61% 29.77 in 10.0 mi WSW 8.1 mph - N/A   Clear
5:55 AM 44.6 °F 40.2 °F 30.2 °F 57% 29.78 in 10.0 mi SW 8.1 mph - N/A   Clear
6:15 AM 44.6 °F 39.2 °F 30.2 °F 57% 29.77 in 10.0 mi SW 10.4 mph - N/A   Clear
6:35 AM 44.6 °F 38.8 °F 28.4 °F 53% 29.77 in 10.0 mi SSW 11.5 mph - N/A   Clear
6:55 AM 46.4 °F 41.5 °F 30.2 °F 53% 29.77 in 10.0 mi SW 10.4 mph - N/A   Clear
7:15 AM 46.4 °F 41.5 °F 30.2 °F 53% 29.78 in 10.0 mi SW 10.4 mph - N/A   Clear
7:35 AM 48.2 °F - 30.2 °F 50% 29.78 in 10.0 mi SW 10.4 mph - N/A   Clear
7:55 AM 48.2 °F - 30.2 °F 50% 29.78 in 10.0 mi SW 12.7 mph - N/A   Clear
8:15 AM 50.0 °F - 30.2 °F 47% 29.78 in 10.0 mi SW 9.2 mph - N/A   Clear
8:55 AM 55.4 °F - 33.8 °F 44% 29.78 in 10.0 mi SSW 12.7 mph - N/A   Clear
9:15 AM 57.2 °F - 33.8 °F 41% 29.79 in 10.0 mi SW 19.6 mph 24.2 mph N/A   Clear
9:35 AM 59.0 °F - 33.8 °F 39% 29.78 in 10.0 mi SW 18.4 mph - N/A   Clear
9:55 AM 62.6 °F - 33.8 °F 34% 29.78 in 10.0 mi SSW 16.1 mph - N/A   Clear
10:15 AM 62.6 °F - 35.6 °F 37% 29.78 in 10.0 mi SSW 16.1 mph - N/A   Clear
10:35 AM 64.4 °F - 35.6 °F 34% 29.78 in 10.0 mi SSW 17.3 mph - N/A   Clear
10:55 AM 66.2 °F - 35.6 °F 32% 29.77 in 10.0 mi South 15.0 mph - N/A   Clear
11:15 AM 69.8 °F - 35.6 °F 28% 29.76 in 10.0 mi SSW 15.0 mph - N/A   Clear
11:35 AM 71.6 °F - 37.4 °F 29% 29.75 in 10.0 mi SSW 16.1 mph - N/A   Clear
11:55 AM 75.2 °F - 35.6 °F 24% 29.73 in 10.0 mi South 15.0 mph - N/A   Clear
12:15 PM 77.0 °F - 35.6 °F 22% 29.72 in 10.0 mi South 18.4 mph 27.6 mph N/A   Clear
12:35 PM 80.6 °F - 35.6 °F 20% 29.70 in 10.0 mi SSW 23.0 mph 29.9 mph N/A   Clear
12:55 PM 80.6 °F - 35.6 °F 20% 29.70 in 10.0 mi SSW 26.5 mph 31.1 mph N/A   Clear
1:15 PM 80.6 °F - 35.6 °F 20% 29.69 in 10.0 mi SSW 28.8 mph 35.7 mph N/A   Clear
1:35 PM 80.6 °F - 33.8 °F 18% 29.69 in 10.0 mi SSW 27.6 mph 35.7 mph N/A   Clear
1:55 PM 80.6 °F - 33.8 °F 18% 29.69 in 10.0 mi SW 27.6 mph 35.7 mph N/A   Clear
2:15 PM 80.6 °F - 33.8 °F 18% 29.68 in 10.0 mi SW 28.8 mph 36.8 mph N/A   Clear
2:35 PM 80.6 °F - 33.8 °F 18% 29.68 in 10.0 mi SSW 25.3 mph 34.5 mph N/A   Clear
2:55 PM 80.6 °F - 32.0 °F 17% 29.68 in 10.0 mi SW 28.8 mph 34.5 mph N/A   Clear
3:15 PM 80.6 °F - 32.0 °F 17% 29.67 in 10.0 mi SSW 26.5 mph 32.2 mph N/A   Clear
3:35 PM 80.6 °F - 30.2 °F 16% 29.67 in 10.0 mi SW 20.7 mph 33.4 mph N/A   Clear
3:55 PM 80.6 °F - 30.2 °F 16% 29.67 in 10.0 mi SSW 21.9 mph 32.2 mph N/A   Clear
4:15 PM 78.8 °F - 30.2 °F 17% 29.67 in 10.0 mi SW 24.2 mph 29.9 mph N/A   Clear
4:35 PM 78.8 °F - 30.2 °F 17% 29.67 in 10.0 mi SSW 20.7 mph - N/A   Clear
4:55 PM 78.8 °F - 30.2 °F 17% 29.68 in 10.0 mi SW 24.2 mph 34.5 mph N/A   Clear
5:15 PM 75.2 °F - 28.4 °F 18% 29.68 in 10.0 mi SSW 19.6 mph - N/A   Clear
5:35 PM 73.4 °F - 28.4 °F 19% 29.69 in 10.0 mi SSW 15.0 mph - N/A   Clear
5:55 PM 71.6 °F - 28.4 °F 20% 29.68 in 10.0 mi SSW 13.8 mph - N/A   Clear
6:15 PM 69.8 °F - 28.4 °F 21% 29.69 in 10.0 mi SSW 12.7 mph - N/A   Clear
6:35 PM 68.0 °F - 28.4 °F 23% 29.69 in 10.0 mi SSW 12.7 mph - N/A   Clear
6:55 PM 66.2 °F - 30.2 °F 26% 29.69 in 10.0 mi South 15.0 mph - N/A   Clear
7:15 PM 64.4 °F - 30.2 °F 28% 29.70 in 10.0 mi SSW 13.8 mph - N/A   Clear
7:35 PM 64.4 °F - 30.2 °F 28% 29.70 in 10.0 mi SSW 13.8 mph - N/A   Clear
7:55 PM 64.4 °F - 30.2 °F 28% 29.71 in 10.0 mi South 15.0 mph - N/A   Clear
8:15 PM 66.2 °F - 33.8 °F 30% 29.71 in 10.0 mi SSW 15.0 mph - N/A   Clear
8:35 PM 64.4 °F - 33.8 °F 32% 29.71 in 10.0 mi SSW 15.0 mph - N/A   Clear
8:55 PM 64.4 °F - 33.8 °F 32% 29.72 in 10.0 mi SSW 13.8 mph - N/A   Clear
9:15 PM 60.8 °F - 33.8 °F 36% 29.72 in 10.0 mi SSW 13.8 mph - N/A   Clear
9:35 PM 60.8 °F - 33.8 °F 36% 29.72 in 10.0 mi SSW 15.0 mph - N/A   Clear
9:55 PM 62.6 °F - 35.6 °F 37% 29.72 in 10.0 mi SW 12.7 mph - N/A   Clear
10:15 PM 62.6 °F - 35.6 °F 37% 29.73 in 10.0 mi SW 17.3 mph 23.0 mph N/A   Clear
10:35 PM 66.2 °F - 37.4 °F 35% 29.72 in 10.0 mi SW 25.3 mph 29.9 mph N/A   Clear
10:55 PM 64.4 °F - 37.4 °F 37% 29.73 in 10.0 mi SW 21.9 mph 27.6 mph N/A   Clear
11:15 PM 64.4 °F - 35.6 °F 34% 29.73 in 10.0 mi SW 18.4 mph - N/A   Clear
11:35 PM 62.6 °F - 35.6 °F 37% 29.74 in 10.0 mi SW 18.4 mph - N/A   Clear
11:55 PM 64.4 °F - 37.4 °F 37% 29.74 in 10.0 mi SW 19.6 mph 26.5 mph N/A   Clear